[[{"header":{"parameterUnit":"m.s-1","parameterCategory":1,"la1":30.2992,"la2":30.254,"lo1":-89.0895,"lo2":-89.0443,"dy":0.0025,"dx":0.0025,"nx":19,"ny":19,"refTime":"2026-03-27T09:00:00:Z","depth":0,"parameterNumber":2,"parameterNumberName":"U-component_of_WINDS"},"data":[0,0,0,-6.3968,-6.3973,-6.4162,-6.4163,-6.4436,-6.4439,0,0,0,0,0,0,0,0,0,0,0,-6.3934,-6.3937,-6.3968,-6.3973,-6.4162,-6.4163,-6.4436,-6.4439,0,0,0,0,0,0,0,0,0,0,0,-6.3933,-6.3936,-6.3939,-6.3974,-6.4162,-6.4163,-6.4435,-6.428,0,0,0,0,0,0,0,0,0,0,-6.4091,-6.4082,-6.3935,-6.3939,-6.3975,-6.4162,-6.4163,-6.4272,-6.429,-6.4365,0,-6.444,0,-6.4444,-6.446,-6.4461,0,0,0,-6.3956,-6.4067,-6.4098,-6.394,-6.3977,-6.4162,-6.4072,-6.4282,-6.4302,-6.4389,-6.4443,-6.4452,-6.4449,-6.4462,-6.4463,-6.4955,-6.4958,0,0,-6.3946,-6.3979,-6.4085,-6.4113,-6.4089,-6.4066,-6.4078,-6.4293,-6.4354,-6.4444,-6.4458,-6.4453,-6.4464,-6.4466,-6.4952,-6.4955,0,0,0,-6.3927,-6.3973,-6.3998,-6.4102,-6.4134,-6.4072,-6.4086,-6.4345,-6.435,-6.4461,-6.4456,-6.4465,-6.4469,-6.4948,-6.4953,-6.5137,0,0,0,-6.392,-6.3962,-6.3994,-6.4017,-6.4131,-6.4243,-6.4133,-6.4335,-6.4359,-6.4455,-6.4466,-6.4472,-6.4945,-6.4951,-6.5124,-6.5217,0,0,0,-6.3914,-6.3961,-6.3996,-6.4018,-6.4101,-6.4238,-6.4256,-6.434,-6.4357,-6.4461,-6.4473,-6.4943,-6.495,-6.5113,-6.5199,-6.5353,0,0,0,-6.3917,-6.4158,-6.4,-6.4267,-6.41,-6.4352,-6.4254,-6.444,-6.4551,-6.4467,-6.4945,-6.4953,-6.511,-6.5187,-6.5342,-6.5487,-6.5552,0,0,-6.424,-6.4198,-6.4353,-6.4216,-6.4505,-6.4321,-6.4635,-6.4705,-6.4684,-6.4865,-6.4876,-6.5128,-6.5197,-6.5351,-6.591,-6.5962,0,0,0,-6.4466,-6.4577,-6.4646,-6.4754,-6.4814,-6.4871,-6.489,-6.4915,-6.5067,-6.4785,-6.5227,-6.5267,-6.5355,-6.5423,-6.5467,-6.5539,-6.4986,-6.4986,-6.4985,-6.4969,-6.4929,-6.518,-6.5163,-6.5269,-6.5285,-6.5365,-6.5401,-6.5331,-6.5436,-6.5488,-6.5833,-6.5914,-6.5946,-6.6022,-6.5565,-6.5566,-6.5566,-6.5567,-6.5435,-6.5584,-6.5484,-6.5691,-6.5646,-6.5819,-6.5843,-6.5786,-6.5938,-6.579,-6.5866,-6.5705,-6.6004,-6.6068,-6.558,-6.5578,-6.5576,-6.5575,-6.5574,-6.5757,-6.5821,-6.5849,-6.5999,-6.6119,-6.6092,-6.6243,-6.6197,-6.6155,-6.6231,-6.6278,-6.6275,-6.6263,-6.6257,-6.6259,-6.626,-6.6261,-6.6262,-6.6262,-6.6079,-6.6104,-6.6238,-6.632,-6.6382,-6.6457,-6.6474,-6.6533,-6.6586,-6.654,-6.654,-6.6456,-6.6043,-6.5937,-6.6281,-6.6277,-6.6275,-6.6273,-6.6272,-6.656,-6.6444,-6.665,-6.6712,-6.6803,-6.6922,-6.6863,-6.6986,-6.7028,-6.7103,-6.7003,-6.6706,-6.666,-6.6624,-6.6536,-6.7014,-6.7014,-6.7014,-6.7014,-6.6829,-6.6802,-6.7,-6.7101,-6.7195,-6.7162,-6.7392,-6.7407,-6.7403,-6.7426,-6.7351,-6.7232,-6.7198,-6.7171,-6.7124,-6.7041,-6.7636,-6.7637,-6.7637,-6.712,-6.71,-6.7305,-6.7302,-6.7369,-6.7427,-6.764,-6.7758,-6.7731,-6.7662,-6.7442,-6.7415,-6.7223,-6.7163,-6.7086,-6.7014,-6.6861,0,0]},{"header":{"parameterUnit":"m.s-1","parameterCategory":1,"la1":30.2992,"la2":30.254,"lo1":-89.0895,"lo2":-89.0443,"dy":0.0025,"dx":0.0025,"nx":19,"ny":19,"refTime":"2026-03-27T09:00:00:Z","depth":0,"parameterNumber":3,"parameterNumberName":"V-component_of_WINDS"},"data":[0,0,0,0.1869,0.187,0.194,0.1941,0.2031,0.2032,0,0,0,0,0,0,0,0,0,0,0,0.1848,0.1848,0.1868,0.187,0.194,0.1941,0.2031,0.2032,0,0,0,0,0,0,0,0,0,0,0,0.1847,0.1848,0.1849,0.187,0.194,0.1941,0.203,0.1977,0,0,0,0,0,0,0,0,0,0,0.1909,0.1889,0.1848,0.1849,0.1871,0.194,0.1941,0.1975,0.1981,0.1999,0,0.2015,0,0.2025,0.2038,0.2038,0,0,0,0.187,0.1885,0.1904,0.1849,0.1872,0.194,0.1909,0.1978,0.1985,0.2007,0.2016,0.2019,0.2026,0.2038,0.2039,0.2144,0.2145,0,0,0.1866,0.186,0.1899,0.1908,0.1897,0.1907,0.1911,0.1982,0.1992,0.2016,0.2022,0.2028,0.2039,0.2039,0.2144,0.2144,0,0,0,0.1855,0.1857,0.1875,0.1904,0.1917,0.1909,0.1914,0.1989,0.1995,0.2023,0.2029,0.2039,0.204,0.2143,0.2144,0.2163,0,0,0,0.1853,0.1851,0.1873,0.187,0.1916,0.1954,0.1919,0.199,0.1998,0.2028,0.2039,0.2041,0.2143,0.2143,0.2161,0.2173,0,0,0,0.1843,0.185,0.186,0.1869,0.1899,0.1953,0.1963,0.1992,0.2002,0.2038,0.2041,0.2142,0.2143,0.216,0.217,0.22,0,0,0,0.1831,0.1875,0.186,0.1912,0.1899,0.1964,0.1963,0.2011,0.2044,0.204,0.2143,0.2144,0.2159,0.2169,0.2198,0.2224,0.2234,0,0,0.1883,0.1881,0.1912,0.1901,0.1966,0.1953,0.2022,0.2058,0.2067,0.2118,0.2121,0.2162,0.217,0.22,0.229,0.2298,0,0,0,0.1926,0.1948,0.1967,0.1998,0.2027,0.2053,0.2079,0.2093,0.2136,0.2092,0.218,0.2185,0.2203,0.2215,0.2222,0.2238,0.2149,0.2149,0.2149,0.199,0.2,0.2053,0.2071,0.2102,0.2129,0.2154,0.2177,0.2177,0.2198,0.2214,0.2268,0.2282,0.2287,0.2304,0.2227,0.2227,0.2227,0.2227,0.2069,0.2102,0.2102,0.2153,0.2164,0.2207,0.2235,0.2234,0.2276,0.2256,0.2272,0.2251,0.2296,0.2311,0.2229,0.2229,0.2228,0.2228,0.2228,0.2113,0.2131,0.2147,0.2194,0.223,0.2247,0.2288,0.2295,0.2302,0.2318,0.2336,0.2336,0.2337,0.2326,0.2326,0.2326,0.2326,0.2326,0.2326,0.2153,0.2171,0.2204,0.2239,0.2261,0.2291,0.2319,0.2341,0.2367,0.2369,0.2369,0.2369,0.2298,0.228,0.2329,0.2329,0.2328,0.2328,0.2328,0.2231,0.2215,0.2266,0.2288,0.2331,0.2367,0.2375,0.242,0.2438,0.2459,0.2454,0.24,0.2399,0.2394,0.238,0.2451,0.2451,0.2451,0.2451,0.2269,0.2269,0.2325,0.236,0.2394,0.2408,0.2467,0.249,0.2511,0.2524,0.2514,0.2496,0.249,0.2492,0.2485,0.2472,0.2565,0.2565,0.2565,0.2318,0.2322,0.2371,0.2391,0.2426,0.2455,0.2511,0.2552,0.2572,0.257,0.2534,0.2529,0.25,0.2489,0.2487,0.2475,0.2452,0,0]}]]